sat.trackr.live / text

‹ back to catalog

TROLL

NORAD 62658 · 2025-009BB

PAYLOAD ACTIVE UNKNOWN

§ Identity

Operator
Country
CZCH
Launch date
2025-01-14
Launch site
AFWTR
Launch vehicle
Mass (kg)
RCS (m²)

External: N2YO · Heavens-Above · Gunter

§ Orbital elements

Epoch: 2026-05-25T04:31:17.815296Z

Period
94.14 min
Inclination
97.3890°
Eccentricity
0.0002895
Mean motion
15.29658426 rev/d
Perigee alt
474.8 km
Apogee alt
478.8 km
Semi-major
6,855.0 km
B*
3.3659e-4
RAAN
227.1642°
Arg perigee
99.4099°
Mean anomaly
260.7468°
Rev number
12,993

§ Raw data

TROLL1 62658U 25009BB  26145.18840064  .00009600  00000+0  33659-3 0  99952 62658  97.3890 227.1642 0002895  99.4099 260.7468 15.29658426129938

JSON: /api/v1/satellites/62658 · /tle

For live sub-satellite position, see the globe view (requires WebGL).

§ Visibility from observer

Set your observer location to see the next 7 days of passes ≥ 10°. The values pass through the URL so the page stays shareable.

No JS? Fill the form by hand. The geolocation button needs JavaScript.

§ Radio — SatNOGS DB

ModeDescriptionDownlinkUplink
BPSK Mode S - Transmitter 1 2.256 GHz
FM Mode S - Transmitter 2 2.281 GHz

2 transmitters · refreshed weekly from db.satnogs.org